LiveATC.Net - Listen to live air traffic control over the Internet! Contact LiveATC.net for advertising information

Find LiveATC Audio Streams


Airport/ARTCC Code

Frequency
(e.g., 124.400, 128.75)
Site-wide search

Browse LiveATC Feeds
LiveATC Coverage Map
Top 50 LiveATC Feeds
Bad Weather Areas

LiveATC FAQ
Offer a LiveATC Feed
Contact LiveATC.net
Press Inquiries

LiveATC on iPhone
LiveATC on Android

LiveATC Mobile
(Mobile browser)

ATC Audio Archives
Interesting Recordings

LiveATC Forums

Home Page
About LiveATC.net
Make a Donation
LiveATC Bookstore

Terms of Use
Privacy Policy

ATC/Radar Sites
U.S. ARTCC Freqs
Canadian Air Freqs

AIRMETs/SIGMETs

FAA Airport Status
Nat'l Airspace Status
Arrival Demand Charts


Server Software By:
Icecast.org
Liquidsoap

U.S. Feeds: Class B Airports | Class C Airports | Class D/Other Airports | ARTCC (Centers)
International Feeds: Canada | Europe | Oceania | Asia | South America | North & Central America | Africa
Misc Feeds: HF Feeds
All Feeds: All Feeds
Search by ICAO/IATA airport code:   (e.g., kbos, kjfk, lax, eham, etc.)


Currently Available Live Feeds: 1147
Status Updated: Tue Apr 21 2015 21:04:01 UTC


NOTICE

Unauthorized use prohibited. See LiveATC.net Terms of Service

ATC Facility
ATC Radio Frequencies

North and Central America Airport Feeds

 

MMAN Tower (Archives)
Monterrey, Mexico

Feed Status: UP

Click on your favorite media player to listen:
Listen with WinAmp to MMAN Tower  Listen with iTunes to MMAN Tower  Click here to listen if using Real Player  Click here to listen if using Windows Media Player

Or simply listen in your browser:

Listen right in your browser(in browser, requires Flash)

MMAN 212040Z 08003KT 3SM HZ BKN015 OVC020 21/17 A2994 RMK SLP110 57019 964 8/5//

MMAN Flight Activity (Flightaware)

Listeners: 4 out of 4562 total

Monterrey Tower: 118.600

MMGL Twr/App (Archives)
Guadalajara, Mexico

Feed Status: UP

Click on your favorite media player to listen:
Listen with WinAmp to MMGL Twr/App  Listen with iTunes to MMGL Twr/App  Click here to listen if using Real Player  Click here to listen if using Windows Media Player

Or simply listen in your browser:

Listen right in your browser(in browser, requires Flash)

MMGL 212049Z 29006KT 8SM FEW300 31/05 A3005 RMK SLP054 57027 914 8/001 CU

MMGL Flight Activity (Flightaware)

Listeners: 9 out of 4562 total

Guadalajara Approach: 120.800
Guadalajara Tower: 118.100

MMJA AFIS/App/Center (Archives)
Veracruz, Mexico

Feed Status: UP

Click on your favorite media player to listen:
Listen with WinAmp to MMJA AFIS/App/Center  Listen with iTunes to MMJA AFIS/App/Center  Click here to listen if using Real Player  Click here to listen if using Windows Media Player

Or simply listen in your browser:

Listen right in your browser(in browser, requires Flash)

MMJA Flight Activity (Flightaware)

Listeners: 2 out of 4562 total

Lencero AFIS: 123.300
Mexico Center: 126.600
Mexico Center: 128.000
Mexico Center: 128.500
Mexico Center: 126.300
Veracruz Approach: 120.400

MMJC CTAF/Info
Atizapan de Zaragoza, Mexico

Feed Status: DOWN
Offline since: 2015-02-20 01:44:03 UTC

Atizapan de Zaragoza CTAF/Info: 118.400

MMMD Tower/Approach (Archives)
Merida, Mexico

Feed Status: UP

Click on your favorite media player to listen:
Listen with WinAmp to MMMD Tower/Approach   Listen with iTunes to MMMD Tower/Approach   Click here to listen if using Real Player  Click here to listen if using Windows Media Player

Or simply listen in your browser:

Listen right in your browser(in browser, requires Flash)

MMMD 212044Z 15007KT 6SM SCT030 BKN300 39/18 A2975 RMK SLP064 56035 953 8/108 FU

MMMD Flight Activity (Flightaware)

Listeners: 5 out of 4562 total

Merida Approach: 121.200
Merida Tower: 118.300

MMMX Approach
Mexico City, Mexico

Feed Status: DOWN
Offline since: 2015-04-21 19:57:03 UTC
MMMX 212043Z 10013KT 7SM FEW020TCU SCT080 28/04 A3014 NOSIG RMK SLP999 57024 952 8/260 HZY CI DSNT CB E AND SW

Mexico City Approach: 121.200

MMMX Dep (Archives)
Mexico City, Mexico

Feed Status: UP

Click on your favorite media player to listen:
Listen with WinAmp to MMMX Dep  Listen with iTunes to MMMX Dep  Click here to listen if using Real Player  Click here to listen if using Windows Media Player

Or simply listen in your browser:

Listen right in your browser(in browser, requires Flash)

MMMX 212043Z 10013KT 7SM FEW020TCU SCT080 28/04 A3014 NOSIG RMK SLP999 57024 952 8/260 HZY CI DSNT CB E AND SW

MMMX Flight Activity (Flightaware)

Listeners: 8 out of 4562 total

Mexico City Departure (East): 120.500
Mexico City Departure (West): 129.100

MMMY Tower/Approach (Archives)
Monterrey, Mexico

Feed Status: UP

Click on your favorite media player to listen:
Listen with WinAmp to MMMY Tower/Approach  Listen with iTunes to MMMY Tower/Approach  Click here to listen if using Real Player  Click here to listen if using Windows Media Player

Or simply listen in your browser:

Listen right in your browser(in browser, requires Flash)

MMMY 212046Z 12005KT 10SM BKN010 OVC020 21/18 A2989 RMK SLP122 55021 965 8/5//

MMMY Flight Activity (Flightaware)

Listeners: 2 out of 4562 total

Monterrey Approach/Departure: 119.750
Monterrey Tower: 118.100

MMPB Tower (Archives)
Puebla, Mexico

Feed Status: UP

Click on your favorite media player to listen:
Listen with WinAmp to MMPB Tower  Listen with iTunes to MMPB Tower  Click here to listen if using Real Player  Click here to listen if using Windows Media Player

Or simply listen in your browser:

Listen right in your browser(in browser, requires Flash)

MMPB 212041Z 20013KT 9SM FEW025 28/05 A3018 RMK 8/100 HZY DSNT TCU E/SE

MMPB Flight Activity (Flightaware)

Listeners: 2 out of 4562 total

Puebla Tower: 118.200

MMTC Torreon, Mexico (Archives)
Torreon, Mexico

Feed Status: UP

Click on your favorite media player to listen:
Listen with WinAmp to MMTC Torreon, Mexico  Listen with iTunes to MMTC Torreon, Mexico  Click here to listen if using Real Player  Click here to listen if using Windows Media Player

Or simply listen in your browser:

Listen right in your browser(in browser, requires Flash)

MMTC 212044Z 18002KT 10 SCT110 SCT200 31///08 A2991 RMK SLP021 58040 911 8/042

MMTC Flight Activity (Flightaware)

Listeners: 2 out of 4562 total

Mazatlan Center: 124.200
Mazatlan Center: 124.400
Mazatlan Center: 128.000
Mexico Center: 123.900
Monterrey Center: 125.600
Monterrey Center: 125.425
Monterrey Center: 127.400
Torreon Approach: 119.500
Torreon Tower: 118.500

MMUN Twr/App/Center (Archives)
Cancun, Mexico

Feed Status: UP

Click on your favorite media player to listen:
Listen with WinAmp to MMUN Twr/App/Center  Listen with iTunes to MMUN Twr/App/Center  Click here to listen if using Real Player  Click here to listen if using Windows Media Player

Or simply listen in your browser:

Listen right in your browser(in browser, requires Flash)

MMMD 212044Z 15007KT 6SM SCT030 BKN300 39/18 A2975 RMK SLP064 56035 953 8/108 FU

MMMD Flight Activity (Flightaware)

Listeners: 5 out of 4562 total

Cancun Approach: 123.400
Cancun Departure: 119.800
Cancun Tower (North): 118.100
Cancun Tower (South): 118.600
Merida Center: 125.200
Merida Center: 128.200

Bermuda Tower/Ground (Archives)
Hamilton, Bermuda

Feed Status: UP

Click on your favorite media player to listen:
Listen with WinAmp to Bermuda Tower/Ground  Listen with iTunes to Bermuda Tower/Ground  Click here to listen if using Real Player  Click here to listen if using Windows Media Player

Or simply listen in your browser:

Listen right in your browser(in browser, requires Flash)

TXKF 212055Z 20013KT 9999 R12///// R30///// SCT008 SCT055 BKN180 BKN300 23/21 Q1014 RMK BASE EST 

TXKF Flight Activity (Flightaware)

Listeners: 2 out of 4562 total

Bermuda CTAF: 122.800
Bermuda Ground/Clearance: 124.500
Bermuda Tower: 118.100

ZNY Bermuda Sector (Archives)
Hamilton, Bermuda

Feed Status: UP

Click on your favorite media player to listen:
Listen with WinAmp to ZNY Bermuda Sector  Listen with iTunes to ZNY Bermuda Sector  Click here to listen if using Real Player  Click here to listen if using Windows Media Player

Or simply listen in your browser:

Listen right in your browser(in browser, requires Flash)

TXKF 212055Z 20013KT 9999 R12///// R30///// SCT008 SCT055 BKN180 BKN300 23/21 Q1014 RMK BASE EST 

TXKF Flight Activity (Flightaware)

Listeners: 2 out of 4562 total

New York Approach (Bermuda Sector) : 119.100
New York Center (Bermuda Sector): 128.500

MGGT Gnd/Twr (Archives)
Guatemala City, Guatemala

Feed Status: UP

Click on your favorite media player to listen:
Listen with WinAmp to MGGT Gnd/Twr  Listen with iTunes to MGGT Gnd/Twr  Click here to listen if using Real Player  Click here to listen if using Windows Media Player

Or simply listen in your browser:

Listen right in your browser(in browser, requires Flash)

MGGT 212100Z 18014KT 6000 VC SH SCT020 SCT025CB 26/19 Q1022 A3018 CB/PCPN NE/E/SE/S/SW/NW

MGGT Flight Activity (Flightaware)

Listeners: 2 out of 4562 total

Guatemala City Ground: 121.900
Guatemala City Tower: 118.100

MGGT Ground (Archives)
Guatemala City, Guatemala

Feed Status: UP

Click on your favorite media player to listen:
Listen with WinAmp to MGGT Ground  Listen with iTunes to MGGT Ground  Click here to listen if using Real Player  Click here to listen if using Windows Media Player

Or simply listen in your browser:

Listen right in your browser(in browser, requires Flash)

MGGT 212100Z 18014KT 6000 VC SH SCT020 SCT025CB 26/19 Q1022 A3018 CB/PCPN NE/E/SE/S/SW/NW

MGGT Flight Activity (Flightaware)

Listeners: 3 out of 4562 total

Guatemala City Ground: 121.900

MGGT Tower (Archives)
Guatemala City, Guatemala

Feed Status: UP

Click on your favorite media player to listen:
Listen with WinAmp to MGGT Tower  Listen with iTunes to MGGT Tower  Click here to listen if using Real Player  Click here to listen if using Windows Media Player

Or simply listen in your browser:

Listen right in your browser(in browser, requires Flash)

MGGT 212100Z 18014KT 6000 VC SH SCT020 SCT025CB 26/19 Q1022 A3018 CB/PCPN NE/E/SE/S/SW/NW

MGGT Flight Activity (Flightaware)

Listeners: 3 out of 4562 total

Guatemala City Tower: 118.100

MHTG Gnd/Twr/App/Ctr/Ops (Archives)
Tegucigalpa, Honduras

Feed Status: UP

Click on your favorite media player to listen:
Listen with WinAmp to MHTG Gnd/Twr/App/Ctr/Ops  Listen with iTunes to MHTG Gnd/Twr/App/Ctr/Ops  Click here to listen if using Real Player  Click here to listen if using Windows Media Player

Or simply listen in your browser:

Listen right in your browser(in browser, requires Flash)

MHTG 212100Z 05006KT 5000 FU FEW034 33/13 Q1014 A2994 NOSIG

MHTG Flight Activity (Flightaware)

Listeners: 2 out of 4562 total

American Airlines Ops: 130.700
ARINC ACARS: 131.550
Cenamer Center: 123.900
Cenamer Center: 124.300
Cenamer Center: 124.100
CMP Ops: 129.925
Continental Airlines Ops: 129.925
FAH Ground: 122.900
Taca Ops: 131.300
Taca Ops Sal: 130.300
Tecnologias Unidas: 133.000
Tegucigalpa RDO: 126.700
Toncontin Approach: 119.100
Toncontin Ground: 121.900
Toncontin Tower: 118.700

MPTO Twr/App/Control (Archives)
Panama City, Panama

Feed Status: UP

Click on your favorite media player to listen:
Listen with WinAmp to MPTO Twr/App/Control  Listen with iTunes to MPTO Twr/App/Control  Click here to listen if using Real Player  Click here to listen if using Windows Media Player

Or simply listen in your browser:

Listen right in your browser(in browser, requires Flash)

MPTO 212000Z 29006KT 9000 SCT018CB SCT080 28/24 Q108 NOSIG

MPTO Flight Activity (Flightaware)

Listeners: 9 out of 4562 total

Panama Approach: 121.200
Panama Control: 123.300
Panama Control: 133.300
Panama Departure: 119.700
Panama Tower: 118.100

MROC Del/Gnd/Twr/App/Center/Misc (Archives)
San Jose, Costa Rica

Feed Status: UP

Click on your favorite media player to listen:
Listen with WinAmp to MROC Del/Gnd/Twr/App/Center/Misc  Listen with iTunes to MROC Del/Gnd/Twr/App/Center/Misc  Click here to listen if using Real Player  Click here to listen if using Windows Media Player

Or simply listen in your browser:

Listen right in your browser(in browser, requires Flash)

MROC 212100Z 22015KT 9999 FEW040 BKN200 26/20 A2993 NOSIG

MROC Flight Activity (Flightaware)

Listeners: 19 out of 4562 total

ADS: 131.000
Aerodespacho Ops: 135.000
Central American Center (CENAMER Control): 124.100
Coco Center (Control over CR Airspace): 119.600
Coco Clearance Delivery: 121.300
Coco Ground: 121.900
Coco Terminal Control: 120.500
Coco Tower: 118.600
Coco UNICOM: 126.800
SYQ Ground: 121.700
SYQ Tower: 118.300

MSSS Tower
San Salvador, El Salvador

Feed Status: DOWN
Offline since: 2015-04-21 04:53:03 UTC
MSSS 211850Z 20009KT 9999 SCT030 31/24 Q1013 A2994

El Salvador Approach: 119.900
Ilopango Approach: 119.500
Ilopango Ground: 121.900
Ilopango Tower: 118.300

Please make a donation to help us keep growing!